Home > Time Zones > World Clock > Weather > U.S.A. > Waco > Past weeks

Flag for U.S.A. Weather past 2 weeks in Waco, Texas, U.S.A.

Now
79 °F

Overcast.


Feels Like: 82 °F
Forecast: 71 / 92 °F
Wind: 12 mph from South

Location: Waco Regional Airport

Current Time: Oct 2, 2014 at 5:53:37 AM

Latest Report: Oct 2, 2014 at 4:51 AM


Visibility: 10 mi

Pressure: 29.78 "Hg

Humidity: 79%

Dew point: 72 °F

Location of WacoLocation

Historic Weather in Waco — Graph

°F

Waco temperature yesterday

Maximum temperature yesterday: 92 °F (at 2:51 PM)
Minimum temperature yesterday: 75 °F (at 2:51 AM)
Average temperature yesterday: 82 °F

Past Weeks' High & Low Weather Summary

 TemperatureHumidityPressure
High94 °F (Sep 17, 3:51 PM)100% (Sep 19, 7:51 AM)30.18 "Hg (Sep 19, 7:51 AM)
Low53 °F (Sep 24, 6:51 AM)22% (Sep 24, 4:51 PM)29.72 "Hg (Oct 1, 4:51 PM)
Average77 °F67%29.97 "Hg
* Reported Sep 17 3:51 AM — Oct 2 3:51 AM, Waco, Weather by CustomWeather, © 2014

Note: Actual official high and low records may vary slightly from our data, if they occured in-between our weather recording intervals... More about our weather records

Advertising

Waco weather history for previous 24 hours

 ConditionsComfort  
Time TempWeatherWind HumidityBarometerVisibility
3:51 AM
Oct 2
78 °FOvercast.15 mph82%29.78 "Hg10 mi
3:03 AM78 °FPassing clouds.15 mph82%29.80 "Hg10 mi
2:51 AM77 °FClear.15 mph82%29.78 "Hg10 mi
1:51 AM78 °FClear.14 mph79%29.78 "Hg10 mi
12:51 AM80 °FClear.17 mph74%29.77 "Hg10 mi
11:51 PM
Oct 1
81 °FClear.17 mph69%29.77 "Hg10 mi
10:51 PM82 °FClear.15 mph65%29.77 "Hg10 mi
9:51 PM83 °FClear.12 mph61%29.76 "Hg10 mi
8:51 PM84 °FClear.10 mph59%29.75 "Hg10 mi
7:51 PM86 °FSunny.10 mph53%29.73 "Hg10 mi
6:51 PM88 °FSunny.14 mph48%29.72 "Hg10 mi
5:51 PM91 °FPassing clouds.13 mph44%29.72 "Hg10 mi
4:51 PM92 °FScattered clouds.15 mph43%29.72 "Hg10 mi
3:51 PM92 °FPassing clouds.15 mph43%29.72 "Hg10 mi
2:51 PM92 °FSunny.14 mph46%29.74 "Hg10 mi
1:51 PM90 °FPassing clouds.10 mph48%29.77 "Hg10 mi
12:51 PM87 °FScattered clouds.12 mph55%29.80 "Hg10 mi
11:51 AM85 °FScattered clouds.8 mph61%29.81 "Hg10 mi
10:51 AM82 °FOvercast.10 mph67%29.82 "Hg10 mi
9:51 AM79 °FOvercast.10 mph77%29.81 "Hg10 mi
8:51 AM78 °FOvercast.7 mph79%29.80 "Hg10 mi
7:51 AM76 °FOvercast.7 mph85%29.80 "Hg10 mi
6:51 AM76 °FOvercast.10 mph82%29.79 "Hg10 mi
5:51 AM76 °FOvercast.14 mph82%29.78 "Hg10 mi
Weather by CustomWeather, © 2014

See weather overviewHow to use our weather pages